Simultaneous Nadir Overpasses (SNOs) Predictions

Prediction of SNOs between GOES-16 and NOAA-19 Satellite Orbit:

Table of predicted SNOs for the next 14.0 days since TLE Epoch: 8/2/2019
Index Date Time (GOES-16) GOES-16 Lat,Lon NOAA-19 Lat,Lon Distance(km) Time Diff (sec)
1 08/03/2019 10:00:27 -0.04, -75.23 -0.19, -74.53 79.85 80
2 08/04/2019 09:48:49 -0.04, -75.24 -0.89, -71.70 405.34 80
3 08/05/2019 22:24:14 0.04, -75.26 -0.94, -79.53 487.31 80
4 08/06/2019 22:12:35 0.05, -75.27 -0.30, -76.68 161.47 80
5 08/07/2019 21:58:18 0.05, -75.29 0.39, -73.85 164.55 80
6 08/08/2019 21:46:39 0.05, -75.30 1.03, -71.00 490.62 80
7 08/10/2019 10:22:04 -0.05, -75.33 0.78, -78.84 401.03 80
8 08/11/2019 10:10:27 -0.05, -75.35 0.07, -76.01 74.66 80
9 08/12/2019 09:56:09 -0.06, -75.37 -0.58, -73.17 251.99 80
10 08/14/2019 22:19:56 0.07, -75.43 -0.56, -78.17 312.61 80
11 08/15/2019 22:05:38 0.07, -75.46 0.08, -75.33 14.62 80




NCC Satellite Simultaneous Nadir Overpasses (SNOs) Prediction Service
